owner,sensor,date,latitude,longitude,vertical_datum,wind_speed,wind_to_direction,wind_speed_of_gust,qcFlag 
DISL,ioos:station:DISL:MHPA:1,2019-03-14T19:30:00Z,30.6671,-87.9365,8.5,6.98,155.8,-9999.0,'1111122,1111122,1111122' 
DISL,ioos:station:DISL:MHPA:1,2019-03-14T20:30:00Z,30.6671,-87.9365,8.5,7.5,158.2,-9999.0,'1111122,1111122,1111122' 
DISL,ioos:station:DISL:MHPA:1,2019-03-14T21:30:00Z,30.6671,-87.9365,8.5,7.86,151.8,-9999.0,'1111122,1111122,1111122' 
DISL,ioos:station:DISL:MHPA:1,2019-03-14T22:30:00Z,30.6671,-87.9365,8.5,7.86,155.4,-9999.0,'1111122,1111122,1111122' 
DISL,ioos:station:DISL:MHPA:1,2019-03-14T23:30:00Z,30.6671,-87.9365,8.5,7.44,154.8,-9999.0,'1111122,1111122,1111122' 
DISL,ioos:station:DISL:MHPA:1,2019-03-15T00:30:00Z,30.6671,-87.9365,8.5,6.72,156.3,-9999.0,'1111122,1111122,1111122' 
DISL,ioos:station:DISL:MHPA:1,2019-03-15T01:30:00Z,30.6671,-87.9365,8.5,7.32,156.6,-9999.0,'1111122,1111122,1111122' 
DISL,ioos:station:DISL:MHPA:1,2019-03-15T02:30:00Z,30.6671,-87.9365,8.5,7.06,153.2,-9999.0,'1111122,1111122,1111122' 
DISL,ioos:station:DISL:MHPA:1,2019-03-15T03:30:00Z,30.6671,-87.9365,8.5,6.51,158.5,-9999.0,'1111122,1111122,1111122' 
DISL,ioos:station:DISL:MHPA:1,2019-03-15T04:30:00Z,30.6671,-87.9365,8.5,5.04,165.5,-9999.0,'1111122,1111122,1111122' 
DISL,ioos:station:DISL:MHPA:1,2019-03-15T05:30:00Z,30.6671,-87.9365,8.5,4.92,159.5,-9999.0,'1111122,1111122,1111122' 
DISL,ioos:station:DISL:MHPA:1,2019-03-15T06:30:00Z,30.6671,-87.9365,8.5,5.22,170.6,-9999.0,'1111122,1111122,1111122' 
DISL,ioos:station:DISL:MHPA:1,2019-03-15T07:30:00Z,30.6671,-87.9365,8.5,2.86,187.8,-9999.0,'1111122,1111122,1111122' 
DISL,ioos:station:DISL:MHPA:1,2019-03-15T08:30:00Z,30.6671,-87.9365,8.5,0.6,203.7,-9999.0,'1111122,1111122,1111122' 
DISL,ioos:station:DISL:MHPA:1,2019-03-15T09:30:00Z,30.6671,-87.9365,8.5,3.9,157.0,-9999.0,'1111122,1111122,1111122' 
DISL,ioos:station:DISL:MHPA:1,2019-03-15T10:30:00Z,30.6671,-87.9365,8.5,3.71,330.0,-9999.0,'1111122,1111122,1111122' 
DISL,ioos:station:DISL:MHPA:1,2019-03-15T11:30:00Z,30.6671,-87.9365,8.5,2.11,350.9,-9999.0,'1111122,1111122,1111122' 
DISL,ioos:station:DISL:MHPA:1,2019-03-15T12:30:00Z,30.6671,-87.9365,8.5,2.56,343.3,-9999.0,'1111122,1111122,1111122' 
DISL,ioos:station:DISL:MHPA:1,2019-03-15T13:30:00Z,30.6671,-87.9365,8.5,3.38,338.1,-9999.0,'1111122,1111122,1111122' 
DISL,ioos:station:DISL:MHPA:1,2019-03-15T14:30:00Z,30.6671,-87.9365,8.5,4.64,329.2,-9999.0,'1111122,1111122,1111122' 
DISL,ioos:station:DISL:MHPA:1,2019-03-15T15:30:00Z,30.6671,-87.9365,8.5,3.28,2.681,-9999.0,'1111122,1111122,1111122' 
DISL,ioos:station:DISL:MHPA:1,2019-03-15T17:00:00Z,30.6671,-87.9365,8.5,4.14,327.6,-9999.0,'1111122,1111122,1111122' 
DISL,ioos:station:DISL:MHPA:1,2019-03-15T18:00:00Z,30.6671,-87.9365,8.5,4.28,342.4,-9999.0,'1111122,1111122,1111122' 
DISL,ioos:station:DISL:MHPA:1,2019-03-15T19:00:00Z,30.6671,-87.9365,8.5,4.12,356.8,-9999.0,'1111122,1111122,1111122' 
DISL,ioos:station:DISL:MHPA:1,2019-03-15T20:00:00Z,30.6671,-87.9365,8.5,4.24,351.5,-9999.0,'1111122,1111122,1111122' 
DISL,ioos:station:DISL:MHPA:1,2019-03-15T21:00:00Z,30.6671,-87.9365,8.5,3.0,6.008,-9999.0,'1111122,1111122,1111122' 
DISL,ioos:station:DISL:MHPA:1,2019-03-15T22:00:00Z,30.6671,-87.9365,8.5,3.16,357.1,-9999.0,'1111122,1111122,1111122' 
DISL,ioos:station:DISL:MHPA:1,2019-03-15T23:00:00Z,30.6671,-87.9365,8.5,0.75,18.46,-9999.0,'1111122,1111122,1111122' 
DISL,ioos:station:DISL:MHPA:1,2019-03-16T00:00:00Z,30.6671,-87.9365,8.5,0.35,351.7,-9999.0,'1111122,1111122,1111122' 
DISL,ioos:station:DISL:MHPA:1,2019-03-16T01:00:00Z,30.6671,-87.9365,8.5,0.01,338.2,-9999.0,'1111122,1111122,1111122' 
DISL,ioos:station:DISL:MHPA:1,2019-03-16T02:00:00Z,30.6671,-87.9365,8.5,3.06,327.1,-9999.0,'1111122,1111122,1111122' 
DISL,ioos:station:DISL:MHPA:1,2019-03-16T03:00:00Z,30.6671,-87.9365,8.5,1.98,336.0,-9999.0,'1111122,1111122,1111122' 
DISL,ioos:station:DISL:MHPA:1,2019-03-16T04:00:00Z,30.6671,-87.9365,8.5,0.0,343.6,-9999.0,'1114422,1111122,1111122' 
DISL,ioos:station:DISL:MHPA:1,2019-03-16T05:00:00Z,30.6671,-87.9365,8.5,0.17,334.0,-9999.0,'1111122,1111122,1111122' 
DISL,ioos:station:DISL:MHPA:1,2019-03-16T06:00:00Z,30.6671,-87.9365,8.5,1.68,351.4,-9999.0,'1111122,1111122,1111122' 
DISL,ioos:station:DISL:MHPA:1,2019-03-16T07:00:00Z,30.6671,-87.9365,8.5,3.93,0.86,-9999.0,'1111122,1111122,1111122' 
DISL,ioos:station:DISL:MHPA:1,2019-03-16T08:00:00Z,30.6671,-87.9365,8.5,3.15,352.2,-9999.0,'1111122,1111122,1111122' 
DISL,ioos:station:DISL:MHPA:1,2019-03-16T09:00:00Z,30.6671,-87.9365,8.5,1.37,7.444,-9999.0,'1111122,1111122,1111122' 
DISL,ioos:station:DISL:MHPA:1,2019-03-16T10:00:00Z,30.6671,-87.9365,8.5,2.5,12.89,-9999.0,'1111122,1111122,1111122' 
DISL,ioos:station:DISL:MHPA:1,2019-03-16T11:00:00Z,30.6671,-87.9365,8.5,3.32,355.6,-9999.0,'1111122,1111122,1111122' 
DISL,ioos:station:DISL:MHPA:1,2019-03-16T12:00:00Z,30.6671,-87.9365,8.5,3.63,9.32,-9999.0,'1111122,1111122,1111122' 
DISL,ioos:station:DISL:MHPA:1,2019-03-16T13:00:00Z,30.6671,-87.9365,8.5,3.17,348.0,-9999.0,'1111122,1111122,1111122' 
DISL,ioos:station:DISL:MHPA:1,2019-03-16T14:00:00Z,30.6671,-87.9365,8.5,3.05,15.84,-9999.0,'1111122,1111122,1111122' 
DISL,ioos:station:DISL:MHPA:1,2019-03-16T15:00:00Z,30.6671,-87.9365,8.5,2.54,4.87,-9999.0,'1111122,1111122,1111122' 
DISL,ioos:station:DISL:MHPA:1,2019-03-16T16:00:00Z,30.6671,-87.9365,8.5,3.1,25.33,-9999.0,'1111122,1111122,1111122' 
DISL,ioos:station:DISL:MHPA:1,2019-03-16T17:00:00Z,30.6671,-87.9365,8.5,3.45,359.0,-9999.0,'1111122,1111122,1111122' 
DISL,ioos:station:DISL:MHPA:1,2019-03-16T18:00:00Z,30.6671,-87.9365,8.5,5.14,358.4,-9999.0,'1111122,1111122,1111122' 
DISL,ioos:station:DISL:MHPA:1,2019-03-16T19:00:00Z,30.6671,-87.9365,8.5,4.43,10.67,-9999.0,'1111122,1111122,1111122' 
DISL,ioos:station:DISL:MHPA:1,2019-03-16T20:00:00Z,30.6671,-87.9365,8.5,3.41,6.741,-9999.0,'1111122,1111122,1111122' 
DISL,ioos:station:DISL:MHPA:1,2019-03-16T21:00:00Z,30.6671,-87.9365,8.5,3.62,8.9,-9999.0,'1111122,1111122,1111122' 
DISL,ioos:station:DISL:MHPA:1,2019-03-16T22:00:00Z,30.6671,-87.9365,8.5,3.83,0.601,-9999.0,'1111122,1111122,1111122' 
DISL,ioos:station:DISL:MHPA:1,2019-03-16T23:00:00Z,30.6671,-87.9365,8.5,2.63,15.24,-9999.0,'1111122,1111122,1111122' 
DISL,ioos:station:DISL:MHPA:1,2019-03-17T00:00:00Z,30.6671,-87.9365,8.5,1.36,2.478,-9999.0,'1111122,1111122,1111122' 
DISL,ioos:station:DISL:MHPA:1,2019-03-17T01:00:00Z,30.6671,-87.9365,8.5,2.05,354.1,-9999.0,'1111122,1111122,1111122' 
DISL,ioos:station:DISL:MHPA:1,2019-03-17T02:00:00Z,30.6671,-87.9365,8.5,1.62,0.849,-9999.0,'1111122,1111122,1111122' 
DISL,ioos:station:DISL:MHPA:1,2019-03-17T03:00:00Z,30.6671,-87.9365,8.5,0.97,350.4,-9999.0,'1111122,1111122,1111122' 
DISL,ioos:station:DISL:MHPA:1,2019-03-17T04:00:00Z,30.6671,-87.9365,8.5,0.5,9.46,-9999.0,'1111122,1111122,1111122' 
DISL,ioos:station:DISL:MHPA:1,2019-03-17T05:00:00Z,30.6671,-87.9365,8.5,0.47,15.03,-9999.0,'1111122,1111122,1111122' 
DISL,ioos:station:DISL:MHPA:1,2019-03-17T06:00:00Z,30.6671,-87.9365,8.5,0.6,16.29,-9999.0,'1111122,1111122,1111122' 
DISL,ioos:station:DISL:MHPA:1,2019-03-17T07:00:00Z,30.6671,-87.9365,8.5,1.75,333.0,-9999.0,'1111122,1111122,1111122' 
DISL,ioos:station:DISL:MHPA:1,2019-03-17T08:00:00Z,30.6671,-87.9365,8.5,1.01,2.54,-9999.0,'1111122,1111122,1111122' 
DISL,ioos:station:DISL:MHPA:1,2019-03-17T09:00:00Z,30.6671,-87.9365,8.5,1.79,355.7,-9999.0,'1111122,1111122,1111122' 
DISL,ioos:station:DISL:MHPA:1,2019-03-17T10:00:00Z,30.6671,-87.9365,8.5,2.13,353.2,-9999.0,'1111122,1111122,1111122' 
DISL,ioos:station:DISL:MHPA:1,2019-03-17T11:00:00Z,30.6671,-87.9365,8.5,2.1,348.1,-9999.0,'1111122,1111122,1111122' 
DISL,ioos:station:DISL:MHPA:1,2019-03-17T12:00:00Z,30.6671,-87.9365,8.5,0.67,351.5,-9999.0,'1111122,1111122,1111122' 
DISL,ioos:station:DISL:MHPA:1,2019-03-17T13:00:00Z,30.6671,-87.9365,8.5,1.99,357.5,-9999.0,'1111122,1111122,1111122' 
DISL,ioos:station:DISL:MHPA:1,2019-03-17T14:00:00Z,30.6671,-87.9365,8.5,1.37,9.2,-9999.0,'1111122,1111122,1111122' 
DISL,ioos:station:DISL:MHPA:1,2019-03-17T15:00:00Z,30.6671,-87.9365,8.5,2.27,5.131,-9999.0,'1111122,1111122,1111122' 
DISL,ioos:station:DISL:MHPA:1,2019-03-17T16:00:00Z,30.6671,-87.9365,8.5,2.71,12.66,-9999.0,'1111122,1111122,1111122' 
DISL,ioos:station:DISL:MHPA:1,2019-03-17T17:00:00Z,30.6671,-87.9365,8.5,3.65,340.7,-9999.0,'1111122,1111122,1111122' 
DISL,ioos:station:DISL:MHPA:1,2019-03-17T18:00:00Z,30.6671,-87.9365,8.5,3.96,331.4,-9999.0,'1111122,1111122,1111122' 
DISL,ioos:station:DISL:MHPA:1,2019-03-17T19:00:00Z,30.6671,-87.9365,8.5,3.7,350.4,-9999.0,'1111122,1111122,1111122' 
DISL,ioos:station:DISL:MHPA:1,2019-03-17T20:00:00Z,30.6671,-87.9365,8.5,3.63,334.4,-9999.0,'1111122,1111122,1111122' 
DISL,ioos:station:DISL:MHPA:1,2019-03-17T21:00:00Z,30.6671,-87.9365,8.5,2.82,332.9,-9999.0,'1111122,1111122,1111122' 
DISL,ioos:station:DISL:MHPA:1,2019-03-17T22:00:00Z,30.6671,-87.9365,8.5,1.95,348.2,-9999.0,'1111122,1111122,1111122' 
DISL,ioos:station:DISL:MHPA:1,2019-03-17T23:00:00Z,30.6671,-87.9365,8.5,0.81,337.1,-9999.0,'1111122,1111122,1111122' 
DISL,ioos:station:DISL:MHPA:1,2019-03-18T00:00:00Z,30.6671,-87.9365,8.5,0.0,0.0,-9999.0,'1114422,1114422,1111122' 
DISL,ioos:station:DISL:MHPA:1,2019-03-18T01:00:00Z,30.6671,-87.9365,8.5,0.0,0.0,-9999.0,'1114422,1114422,1111122' 
DISL,ioos:station:DISL:MHPA:1,2019-03-18T02:00:00Z,30.6671,-87.9365,8.5,0.09,12.06,-9999.0,'1111122,1111122,1111122' 
DISL,ioos:station:DISL:MHPA:1,2019-03-18T03:00:00Z,30.6671,-87.9365,8.5,0.0,0.0,-9999.0,'1114422,1114422,1111122' 
DISL,ioos:station:DISL:MHPA:1,2019-03-18T04:00:00Z,30.6671,-87.9365,8.5,0.01,12.14,-9999.0,'1111122,1111122,1111122' 
DISL,ioos:station:DISL:MHPA:1,2019-03-18T05:00:00Z,30.6671,-87.9365,8.5,0.24,3.397,-9999.0,'1111122,1111122,1111122' 
DISL,ioos:station:DISL:MHPA:1,2019-03-18T06:00:00Z,30.6671,-87.9365,8.5,0.29,353.6,-9999.0,'1111122,1111122,1111122' 
DISL,ioos:station:DISL:MHPA:1,2019-03-18T07:00:00Z,30.6671,-87.9365,8.5,1.14,352.8,-9999.0,'1111122,1111122,1111122' 
DISL,ioos:station:DISL:MHPA:1,2019-03-18T08:00:00Z,30.6671,-87.9365,8.5,0.35,355.3,-9999.0,'1111122,1111122,1111122' 
DISL,ioos:station:DISL:MHPA:1,2019-03-18T09:00:00Z,30.6671,-87.9365,8.5,0.99,347.1,-9999.0,'1111122,1111122,1111122' 
DISL,ioos:station:DISL:MHPA:1,2019-03-18T10:00:00Z,30.6671,-87.9365,8.5,1.25,339.9,-9999.0,'1111122,1111122,1111122' 
DISL,ioos:station:DISL:MHPA:1,2019-03-18T11:00:00Z,30.6671,-87.9365,8.5,0.17,351.4,-9999.0,'1111122,1111122,1111122' 
DISL,ioos:station:DISL:MHPA:1,2019-03-18T12:00:00Z,30.6671,-87.9365,8.5,0.54,356.3,-9999.0,'1111122,1111122,1111122' 
DISL,ioos:station:DISL:MHPA:1,2019-03-18T13:00:00Z,30.6671,-87.9365,8.5,0.99,342.8,-9999.0,'1111122,1111122,1111122' 
DISL,ioos:station:DISL:MHPA:1,2019-03-18T14:00:00Z,30.6671,-87.9365,8.5,0.32,2.529,-9999.0,'1111122,1111122,1111122' 
DISL,ioos:station:DISL:MHPA:1,2019-03-18T15:00:00Z,30.6671,-87.9365,8.5,2.61,25.23,-9999.0,'1111122,1111122,1111122' 
DISL,ioos:station:DISL:MHPA:1,2019-03-18T16:00:00Z,30.6671,-87.9365,8.5,2.27,14.24,-9999.0,'1111122,1111122,1111122' 
DISL,ioos:station:DISL:MHPA:1,2019-03-18T17:00:00Z,30.6671,-87.9365,8.5,2.89,19.02,-9999.0,'1111122,1111122,1111122' 
DISL,ioos:station:DISL:MHPA:1,2019-03-18T18:00:00Z,30.6671,-87.9365,8.5,3.11,18.5,-9999.0,'1111122,1111122,1111122' 
DISL,ioos:station:DISL:MHPA:1,2019-03-18T19:00:00Z,30.6671,-87.9365,8.5,3.7,6.303,-9999.0,'1111122,1111122,1111122' 
DISL,ioos:station:DISL:MHPA:1,2019-03-18T20:00:00Z,30.6671,-87.9365,8.5,2.89,354.9,-9999.0,'1111122,1111122,1111122' 
DISL,ioos:station:DISL:MHPA:1,2019-03-18T21:00:00Z,30.6671,-87.9365,8.5,3.63,349.8,-9999.0,'1111122,1111122,1111122' 
DISL,ioos:station:DISL:MHPA:1,2019-03-18T22:00:00Z,30.6671,-87.9365,8.5,3.06,356.1,-9999.0,'1111122,1111122,1111122' 
DISL,ioos:station:DISL:MHPA:1,2019-03-18T23:00:00Z,30.6671,-87.9365,8.5,0.86,10.99,-9999.0,'1111122,1111122,1111122' 
DISL,ioos:station:DISL:MHPA:1,2019-03-19T00:00:00Z,30.6671,-87.9365,8.5,0.0,0.0,-9999.0,'1114422,1114422,1111122' 
DISL,ioos:station:DISL:MHPA:1,2019-03-19T01:00:00Z,30.6671,-87.9365,8.5,0.02,347.8,-9999.0,'1111122,1111122,1111122' 
DISL,ioos:station:DISL:MHPA:1,2019-03-19T02:00:00Z,30.6671,-87.9365,8.5,0.0,0.0,-9999.0,'1114422,1114422,1111122' 
DISL,ioos:station:DISL:MHPA:1,2019-03-19T03:00:00Z,30.6671,-87.9365,8.5,0.09,13.29,-9999.0,'1111122,1111122,1111122' 
DISL,ioos:station:DISL:MHPA:1,2019-03-19T04:00:00Z,30.6671,-87.9365,8.5,0.02,5.113,-9999.0,'1111122,1111122,1111122' 
DISL,ioos:station:DISL:MHPA:1,2019-03-19T05:00:00Z,30.6671,-87.9365,8.5,0.61,19.74,-9999.0,'1111122,1111122,1111122' 
DISL,ioos:station:DISL:MHPA:1,2019-03-19T06:00:00Z,30.6671,-87.9365,8.5,0.91,17.14,-9999.0,'1111122,1111122,1111122' 
DISL,ioos:station:DISL:MHPA:1,2019-03-19T07:00:00Z,30.6671,-87.9365,8.5,2.22,19.72,-9999.0,'1111122,1111122,1111122' 
DISL,ioos:station:DISL:MHPA:1,2019-03-19T08:00:00Z,30.6671,-87.9365,8.5,2.79,17.22,-9999.0,'1111122,1111122,1111122' 
DISL,ioos:station:DISL:MHPA:1,2019-03-19T09:00:00Z,30.6671,-87.9365,8.5,2.03,14.78,-9999.0,'1111122,1111122,1111122' 
DISL,ioos:station:DISL:MHPA:1,2019-03-19T10:00:00Z,30.6671,-87.9365,8.5,2.48,6.336,-9999.0,'1111122,1111122,1111122' 
DISL,ioos:station:DISL:MHPA:1,2019-03-19T11:00:00Z,30.6671,-87.9365,8.5,1.69,24.19,-9999.0,'1111122,1111122,1111122' 
DISL,ioos:station:DISL:MHPA:1,2019-03-19T12:00:00Z,30.6671,-87.9365,8.5,0.17,356.3,-9999.0,'1111122,1111122,1111122' 
DISL,ioos:station:DISL:MHPA:1,2019-03-19T13:00:00Z,30.6671,-87.9365,8.5,1.05,351.9,-9999.0,'1111122,1111122,1111122' 
DISL,ioos:station:DISL:MHPA:1,2019-03-19T14:00:00Z,30.6671,-87.9365,8.5,2.66,15.07,-9999.0,'1111122,1111122,1111122' 
DISL,ioos:station:DISL:MHPA:1,2019-03-19T15:00:00Z,30.6671,-87.9365,8.5,3.11,34.12,-9999.0,'1111122,1111122,1111122' 
DISL,ioos:station:DISL:MHPA:1,2019-03-19T16:00:00Z,30.6671,-87.9365,8.5,3.57,8.39,-9999.0,'1111122,1111122,1111122' 
DISL,ioos:station:DISL:MHPA:1,2019-03-19T17:00:00Z,30.6671,-87.9365,8.5,3.35,355.8,-9999.0,'1111122,1111122,1111122' 
DISL,ioos:station:DISL:MHPA:1,2019-03-19T18:00:00Z,30.6671,-87.9365,8.5,2.37,2.07,-9999.0,'1111122,1111122,1111122' 
DISL,ioos:station:DISL:MHPA:1,2019-03-19T19:00:00Z,30.6671,-87.9365,8.5,2.53,342.4,-9999.0,'1111122,1111122,1111122' 
DISL,ioos:station:DISL:MHPA:1,2019-03-19T20:00:00Z,30.6671,-87.9365,8.5,4.71,326.7,-9999.0,'1111122,1111122,1111122' 
DISL,ioos:station:DISL:MHPA:1,2019-03-19T21:00:00Z,30.6671,-87.9365,8.5,4.13,319.1,-9999.0,'1111122,1111122,1111122' 
DISL,ioos:station:DISL:MHPA:1,2019-03-19T22:00:00Z,30.6671,-87.9365,8.5,3.67,346.0,-9999.0,'1111122,1111122,1111122' 
DISL,ioos:station:DISL:MHPA:1,2019-03-19T23:00:00Z,30.6671,-87.9365,8.5,2.91,336.3,-9999.0,'1111122,1111122,1111122' 
DISL,ioos:station:DISL:MHPA:1,2019-03-20T00:00:00Z,30.6671,-87.9365,8.5,0.96,351.9,-9999.0,'1111122,1111122,1111122' 
DISL,ioos:station:DISL:MHPA:1,2019-03-20T01:00:00Z,30.6671,-87.9365,8.5,0.07,2.069,-9999.0,'1111122,1111122,1111122' 
DISL,ioos:station:DISL:MHPA:1,2019-03-20T02:00:00Z,30.6671,-87.9365,8.5,0.38,352.4,-9999.0,'1111122,1111122,1111122' 
DISL,ioos:station:DISL:MHPA:1,2019-03-20T03:00:00Z,30.6671,-87.9365,8.5,0.22,2.284,-9999.0,'1111122,1111122,1111122' 
DISL,ioos:station:DISL:MHPA:1,2019-03-20T04:00:00Z,30.6671,-87.9365,8.5,1.59,346.7,-9999.0,'1111122,1111122,1111122' 
DISL,ioos:station:DISL:MHPA:1,2019-03-20T05:00:00Z,30.6671,-87.9365,8.5,1.7,358.4,-9999.0,'1111122,1111122,1111122' 
DISL,ioos:station:DISL:MHPA:1,2019-03-20T06:00:00Z,30.6671,-87.9365,8.5,0.01,348.6,-9999.0,'1111122,1111122,1111122' 
DISL,ioos:station:DISL:MHPA:1,2019-03-20T07:00:00Z,30.6671,-87.9365,8.5,0.65,352.2,-9999.0,'1111122,1111122,1111122' 
DISL,ioos:station:DISL:MHPA:1,2019-03-20T08:00:00Z,30.6671,-87.9365,8.5,0.47,8.89,-9999.0,'1111122,1111122,1111122' 
DISL,ioos:station:DISL:MHPA:1,2019-03-20T09:00:00Z,30.6671,-87.9365,8.5,0.35,14.89,-9999.0,'1111122,1111122,1111122' 
DISL,ioos:station:DISL:MHPA:1,2019-03-20T10:00:00Z,30.6671,-87.9365,8.5,1.33,0.644,-9999.0,'1111122,1111122,1111122' 
DISL,ioos:station:DISL:MHPA:1,2019-03-20T11:00:00Z,30.6671,-87.9365,8.5,0.7,357.4,-9999.0,'1111122,1111122,1111122' 
DISL,ioos:station:DISL:MHPA:1,2019-03-20T12:00:00Z,30.6671,-87.9365,8.5,0.16,342.2,-9999.0,'1111122,1111122,1111122' 
DISL,ioos:station:DISL:MHPA:1,2019-03-20T13:00:00Z,30.6671,-87.9365,8.5,0.24,351.3,-9999.0,'1111122,1111122,1111122' 
DISL,ioos:station:DISL:MHPA:1,2019-03-20T14:00:00Z,30.6671,-87.9365,8.5,0.62,16.98,-9999.0,'1111122,1111122,1111122' 
DISL,ioos:station:DISL:MHPA:1,2019-03-20T15:00:00Z,30.6671,-87.9365,8.5,1.69,72.8,-9999.0,'1111122,1111122,1111122' 
DISL,ioos:station:DISL:MHPA:1,2019-03-20T16:00:00Z,30.6671,-87.9365,8.5,0.88,108.5,-9999.0,'1111122,1111122,1111122' 
DISL,ioos:station:DISL:MHPA:1,2019-03-20T17:00:00Z,30.6671,-87.9365,8.5,3.03,237.7,-9999.0,'1111122,1111122,1111122' 
DISL,ioos:station:DISL:MHPA:1,2019-03-20T18:00:00Z,30.6671,-87.9365,8.5,2.54,252.8,-9999.0,'1111122,1111122,1111122' 
DISL,ioos:station:DISL:MHPA:1,2019-03-20T19:00:00Z,30.6671,-87.9365,8.5,3.91,244.4,-9999.0,'1111122,1111122,1111122' 
DISL,ioos:station:DISL:MHPA:1,2019-03-20T20:00:00Z,30.6671,-87.9365,8.5,2.78,216.1,-9999.0,'1111122,1111122,1111122' 
DISL,ioos:station:DISL:MHPA:1,2019-03-20T21:00:00Z,30.6671,-87.9365,8.5,4.05,184.2,-9999.0,'1111122,1111122,1111122' 
DISL,ioos:station:DISL:MHPA:1,2019-03-20T22:00:00Z,30.6671,-87.9365,8.5,5.36,186.9,-9999.0,'1111122,1111122,1111122' 
DISL,ioos:station:DISL:MHPA:1,2019-03-20T23:00:00Z,30.6671,-87.9365,8.5,4.9,180.1,-9999.0,'1111122,1111122,1111122' 
DISL,ioos:station:DISL:MHPA:1,2019-03-21T00:00:00Z,30.6671,-87.9365,8.5,4.44,176.0,-9999.0,'1111122,1111122,1111122' 
DISL,ioos:station:DISL:MHPA:1,2019-03-21T01:00:00Z,30.6671,-87.9365,8.5,4.54,235.7,-9999.0,'1111122,1111122,1111122' 
DISL,ioos:station:DISL:MHPA:1,2019-03-21T02:00:00Z,30.6671,-87.9365,8.5,4.09,238.4,-9999.0,'1111122,1111122,1111122' 
DISL,ioos:station:DISL:MHPA:1,2019-03-21T03:00:00Z,30.6671,-87.9365,8.5,3.27,232.0,-9999.0,'1111122,1111122,1111122' 
DISL,ioos:station:DISL:MHPA:1,2019-03-21T04:00:00Z,30.6671,-87.9365,8.5,1.41,222.9,-9999.0,'1111122,1111122,1111122' 
DISL,ioos:station:DISL:MHPA:1,2019-03-21T05:00:00Z,30.6671,-87.9365,8.5,1.22,203.0,-9999.0,'1111122,1111122,1111122' 
DISL,ioos:station:DISL:MHPA:1,2019-03-21T06:00:00Z,30.6671,-87.9365,8.5,0.18,179.8,-9999.0,'1111122,1111122,1111122' 
DISL,ioos:station:DISL:MHPA:1,2019-03-21T07:00:00Z,30.6671,-87.9365,8.5,1.92,235.6,-9999.0,'1111122,1111122,1111122' 
DISL,ioos:station:DISL:MHPA:1,2019-03-21T08:00:00Z,30.6671,-87.9365,8.5,3.62,280.2,-9999.0,'1111122,1111122,1111122' 
DISL,ioos:station:DISL:MHPA:1,2019-03-21T09:00:00Z,30.6671,-87.9365,8.5,3.01,330.4,-9999.0,'1111122,1111122,1111122' 
DISL,ioos:station:DISL:MHPA:1,2019-03-21T10:00:00Z,30.6671,-87.9365,8.5,1.39,325.7,-9999.0,'1111122,1111122,1111122' 
DISL,ioos:station:DISL:MHPA:1,2019-03-21T11:00:00Z,30.6671,-87.9365,8.5,2.69,314.8,-9999.0,'1111122,1111122,1111122' 
DISL,ioos:station:DISL:MHPA:1,2019-03-21T12:00:00Z,30.6671,-87.9365,8.5,2.83,331.0,-9999.0,'1111122,1111122,1111122' 
DISL,ioos:station:DISL:MHPA:1,2019-03-21T13:00:00Z,30.6671,-87.9365,8.5,2.65,330.2,-9999.0,'1111122,1111122,1111122' 
DISL,ioos:station:DISL:MHPA:1,2019-03-21T14:00:00Z,30.6671,-87.9365,8.5,2.95,327.3,-9999.0,'1111122,1111122,1111122' 
DISL,ioos:station:DISL:MHPA:1,2019-03-21T15:00:00Z,30.6671,-87.9365,8.5,3.6,331.1,-9999.0,'1111122,1111122,1111122' 
DISL,ioos:station:DISL:MHPA:1,2019-03-21T16:00:00Z,30.6671,-87.9365,8.5,3.98,345.8,-9999.0,'1111122,1111122,1111122' 
DISL,ioos:station:DISL:MHPA:1,2019-03-21T17:00:00Z,30.6671,-87.9365,8.5,2.7,346.8,-9999.0,'1111122,1111122,1111122' 
DISL,ioos:station:DISL:MHPA:1,2019-03-21T18:00:00Z,30.6671,-87.9365,8.5,4.02,315.8,-9999.0,'1111122,1111122,1111122' 
DISL,ioos:station:DISL:MHPA:1,2019-03-21T19:00:00Z,30.6671,-87.9365,8.5,4.38,306.7,-9999.0,'1111122,1111122,1111122' 
DISL,ioos:station:DISL:MHPA:1,2019-03-21T20:00:00Z,30.6671,-87.9365,8.5,4.6,292.7,-9999.0,'1111122,1111122,1111122' 
DISL,ioos:station:DISL:MHPA:1,2019-03-21T21:00:00Z,30.6671,-87.9365,8.5,4.85,293.4,-9999.0,'1111122,1111122,1111122' 
DISL,ioos:station:DISL:MHPA:1,2019-03-21T22:00:00Z,30.6671,-87.9365,8.5,3.34,296.1,-9999.0,'1111122,1111122,1111122' 
DISL,ioos:station:DISL:MHPA:1,2019-03-21T23:00:00Z,30.6671,-87.9365,8.5,3.46,314.5,-9999.0,'1111122,1111122,1111122' 
DISL,ioos:station:DISL:MHPA:1,2019-03-22T00:00:00Z,30.6671,-87.9365,8.5,3.32,305.1,-9999.0,'1111122,1111122,1111122' 
DISL,ioos:station:DISL:MHPA:1,2019-03-22T01:00:00Z,30.6671,-87.9365,8.5,1.66,298.2,-9999.0,'1111122,1111122,1111122' 
DISL,ioos:station:DISL:MHPA:1,2019-03-22T02:00:00Z,30.6671,-87.9365,8.5,0.0,292.2,-9999.0,'1114422,1111122,1111122' 
DISL,ioos:station:DISL:MHPA:1,2019-03-22T03:00:00Z,30.6671,-87.9365,8.5,0.25,298.9,-9999.0,'1111122,1111122,1111122' 
DISL,ioos:station:DISL:MHPA:1,2019-03-22T04:00:00Z,30.6671,-87.9365,8.5,0.17,324.7,-9999.0,'1111122,1111122,1111122' 
DISL,ioos:station:DISL:MHPA:1,2019-03-22T05:00:00Z,30.6671,-87.9365,8.5,0.0,354.5,-9999.0,'1114422,1111122,1111122' 
DISL,ioos:station:DISL:MHPA:1,2019-03-22T06:00:00Z,30.6671,-87.9365,8.5,0.0,0.0,-9999.0,'1114422,1114422,1111122' 
DISL,ioos:station:DISL:MHPA:1,2019-03-22T07:00:00Z,30.6671,-87.9365,8.5,0.0,0.0,-9999.0,'1114422,1114422,1111122' 
DISL,ioos:station:DISL:MHPA:1,2019-03-22T08:00:00Z,30.6671,-87.9365,8.5,0.0,0.0,-9999.0,'1114422,1114422,1111122' 
DISL,ioos:station:DISL:MHPA:1,2019-03-22T09:00:00Z,30.6671,-87.9365,8.5,0.15,329.5,-9999.0,'1111122,1111122,1111122' 
DISL,ioos:station:DISL:MHPA:1,2019-03-22T10:00:00Z,30.6671,-87.9365,8.5,0.0,0.0,-9999.0,'1114422,1114422,1111122' 
DISL,ioos:station:DISL:MHPA:1,2019-03-22T11:00:00Z,30.6671,-87.9365,8.5,0.0,0.0,-9999.0,'1114422,1114422,1111122' 
DISL,ioos:station:DISL:MHPA:1,2019-03-22T12:00:00Z,30.6671,-87.9365,8.5,0.43,347.6,-9999.0,'1111122,1111122,1111122' 
DISL,ioos:station:DISL:MHPA:1,2019-03-22T13:00:00Z,30.6671,-87.9365,8.5,0.76,333.6,-9999.0,'1111122,1111122,1111122' 
DISL,ioos:station:DISL:MHPA:1,2019-03-22T14:00:00Z,30.6671,-87.9365,8.5,1.92,353.4,-9999.0,'1111122,1111122,1111122' 
DISL,ioos:station:DISL:MHPA:1,2019-03-22T15:00:00Z,30.6671,-87.9365,8.5,2.04,3.087,-9999.0,'1111122,1111122,1111122' 
DISL,ioos:station:DISL:MHPA:1,2019-03-22T16:00:00Z,30.6671,-87.9365,8.5,3.1,9.61,-9999.0,'1111122,1111122,1111122' 
DISL,ioos:station:DISL:MHPA:1,2019-03-22T17:00:00Z,30.6671,-87.9365,8.5,3.89,327.5,-9999.0,'1111122,1111122,1111122' 
DISL,ioos:station:DISL:MHPA:1,2019-03-22T18:00:00Z,30.6671,-87.9365,8.5,1.97,340.4,-9999.0,'1111122,1111122,1111122' 
DISL,ioos:station:DISL:MHPA:1,2019-03-22T19:00:00Z,30.6671,-87.9365,8.5,2.73,338.7,-9999.0,'1111122,1111122,1111122' 
DISL,ioos:station:DISL:MHPA:1,2019-03-22T20:00:00Z,30.6671,-87.9365,8.5,1.52,357.1,-9999.0,'1111122,1111122,1111122' 
DISL,ioos:station:DISL:MHPA:1,2019-03-22T21:00:00Z,30.6671,-87.9365,8.5,2.22,345.4,-9999.0,'1111122,1111122,1111122' 
DISL,ioos:station:DISL:MHPA:1,2019-03-22T22:00:00Z,30.6671,-87.9365,8.5,0.4,12.35,-9999.0,'1111122,1111122,1111122' 
DISL,ioos:station:DISL:MHPA:1,2019-03-22T23:00:00Z,30.6671,-87.9365,8.5,4.93,200.6,-9999.0,'1111122,1111122,1111122' 
DISL,ioos:station:DISL:MHPA:1,2019-03-23T00:00:00Z,30.6671,-87.9365,8.5,1.71,158.5,-9999.0,'1111122,1111122,1111122' 
DISL,ioos:station:DISL:MHPA:1,2019-03-23T01:00:00Z,30.6671,-87.9365,8.5,2.64,211.6,-9999.0,'1111122,1111122,1111122' 
DISL,ioos:station:DISL:MHPA:1,2019-03-23T02:00:00Z,30.6671,-87.9365,8.5,0.62,216.4,-9999.0,'1111122,1111122,1111122' 
DISL,ioos:station:DISL:MHPA:1,2019-03-23T03:00:00Z,30.6671,-87.9365,8.5,0.61,208.9,-9999.0,'1111122,1111122,1111122' 
DISL,ioos:station:DISL:MHPA:1,2019-03-23T04:00:00Z,30.6671,-87.9365,8.5,0.0,0.0,-9999.0,'1114422,1114422,1111122' 
DISL,ioos:station:DISL:MHPA:1,2019-03-23T05:00:00Z,30.6671,-87.9365,8.5,0.0,0.0,-9999.0,'1114422,1114422,1111122' 
DISL,ioos:station:DISL:MHPA:1,2019-03-23T06:00:00Z,30.6671,-87.9365,8.5,0.0,0.0,-9999.0,'1114422,1114422,1111122' 